Wind_Speed
39 39 40 41 42 42 42 43 43 43 43 43 44 44 44 45 45 45 45 45 46 47 48 48 48 48 48 47 47 46 46 46 46 46 46 46 46 46 46 46 47 47 47
38 39 39 40 41 42 43 43 42 42 43 43 44 44 44 44 45 45 45 46 46 47 47 48 48 49 49 49 49 48 48 48 48 47 47 46 46 47 47 48 48 48 48
38 38 38 39 40 41 42 42 42 42 42 43 44 44 45 44 45 45 45 46 46 47 48 48 49 49 49 50 50 49 49 49 48 49 49 48 47 47 48 48 49 49 49
38 38 39 39 40 41 41 42 42 43 43 44 44 43 44 44 44 45 46 46 47 48 48 49 49 50 50 50 50 50 49 49 49 50 50 50 49 49 47 47 49 49 49
37 37 38 39 40 40 41 42 42 43 43 43 43 43 42 43 44 45 46 47 48 49 49 48 49 50 50 50 50 50 50 50 49 50 51 51 50 50 49 48 48 49 50
35 36 37 38 39 40 41 41 42 42 43 44 44 43 44 44 44 45 46 47 48 49 49 49 49 50 49 49 49 49 49 50 50 50 50 50 50 50 50 49 49 50 51
33 34 35 36 37 38 39 40 42 42 42 44 44 44 45 45 45 45 46 47 47 48 49 49 49 49 49 48 48 48 48 49 48 48 48 49 49 49 50 50 50 50 50
31 32 33 35 36 37 37 39 40 41 42 43 44 45 44 44 44 45 46 46 46 46 47 47 47 47 48 47 47 47 47 46 46 46 47 47 47 47 48 48 49 49 49
30 31 32 33 34 35 36 37 38 39 41 42 43 44 44 43 43 43 44 44 45 46 46 47 46 46 46 46 45 44 44 45 45 45 45 45 45 45 46 46 47 48 48
30 30 31 32 32 33 35 36 38 38 39 40 42 43 43 43 43 43 43 44 44 44 45 45 44 44 44 44 44 43 42 42 42 43 43 43 44 44 45 45 46 47 47
28 29 30 31 32 33 33 35 36 37 38 39 40 41 41 42 42 42 42 42 42 43 43 43 43 42 42 42 42 41 40 40 40 40 41 41 42 42 42 44 44 45 46
27 28 30 30 31 32 33 34 34 35 36 36 38 39 39 40 40 40 40 40 41 42 42 41 41 41 40 40 39 40 40 39 39 39 40 40 41 41 40 41 42 43 44
28 28 29 30 30 31 32 32 32 33 33 34 34 35 36 37 37 38 39 39 39 39 40 40 39 39 38 38 38 38 38 39 39 39 39 39 40 40 39 40 40 41 41
27 28 29 30 30 30 30 30 30 31 31 31 32 32 34 35 35 36 37 37 37 38 38 38 37 37 37 37 37 36 37 37 38 38 38 38 38 39 38 39 39 39 39
26 26 27 28 28 28 28 28 29 29 29 30 30 31 33 34 35 35 36 35 35 35 36 36 35 35 35 35 36 36 35 35 36 36 37 38 38 39 38 38 38 38 38
26 26 26 26 27 27 27 27 27 27 28 29 31 31 33 33 33 34 33 33 33 33 33 34 34 34 34 35 35 34 34 35 35 35 36 37 37 37 37 37 37 37 36
25 25 25 26 26 25 25 26 26 27 28 28 29 30 31 31 31 32 32 32 32 32 32 33 33 33 33 33 33 33 34 35 35 35 35 36 36 36 36 37 36 36 35
25 25 25 25 25 25 26 26 26 26 27 28 28 29 29 29 29 30 30 30 31 31 31 31 31 32 32 32 32 33 34 34 35 35 35 36 36 36 36 36 35 34 34
25 25 24 24 25 25 26 26 26 26 26 27 27 28 28 28 28 28 29 29 30 30 30 30 30 31 32 32 33 34 33 34 34 34 35 35 35 36 36 35 34 33 32
25 25 25 25 25 26 26 26 26 26 27 26 26 27 28 28 27 27 28 28 28 28 28 29 30 30 30 31 32 33 33 33 33 34 34 34 35 34 33 33 33 32 32
26 26 26 26 26 26 26 26 26 27 26 26 26 25 25 25 25 26 26 26 26 26 27 28 29 29 29 30 30 31 31 32 32 32 33 33 33 33 32 31 30 30 30
26 26 26 26 26 26 26 26 26 26 25 25 24 23 23 23 23 23 23 24 25 25 25 26 27 27 27 27 28 28 29 30 30 30 30 31 31 29 28 28 28 28 28
26 26 26 26 25 25 25 25 25 24 23 23 22 22 22 22 21 21 21 22 22 23 23 23 24 25 25 25 25 25 25 26 26 27 27 27 27 26 26 26 26 26 25
25 25 25 24 24 24 23 23 22 22 22 21 21 20 20 20 20 20 20 21 21 21 21 22 23 23 24 23 23 23 23 23 24 24 24 24 23 23 23 23 23 23 23
24 24 23 23 23 22 21 21 21 20 20 20 19 19 19 19 19 18 18 19 19 20 20 20 20 20 21 21 22 21 21 22 22 22 22 21 21 20 20 20 21 21 20
22 22 22 21 21 21 20 20 20 19 19 19 19 18 18 18 18 18 18 17 18 18 18 18 19 18 18 19 19 20 20 20 21 21 20 19 19 19 19 19 19 18 17
Wind_Direction
257 256 257 256 255 256 256 256 258 258 258 258 258 259 260 260 260 259 259 260 259 259 258 258 259 259 260 261 262 263 264 264 264 264 264 265 266 267 268 268 269 269 270
257 257 257 257 256 256 257 257 258 258 258 259 260 260 260 260 260 261 261 261 261 260 260 259 259 260 260 262 263 263 264 264 264 264 264 264 265 267 268 268 268 269 270
259 258 258 257 257 257 258 257 257 257 258 259 260 260 260 260 261 261 262 262 262 262 261 261 260 260 261 262 263 264 264 264 264 264 264 265 265 266 267 268 268 269 270
260 259 258 257 257 258 258 258 258 258 258 260 261 261 261 260 261 261 261 262 262 262 262 262 262 261 262 263 264 265 264 263 264 265 265 266 267 266 266 267 268 269 270
261 259 258 258 258 258 259 259 259 260 260 260 260 260 260 261 261 262 262 262 262 262 262 263 264 263 263 264 264 264 264 264 264 265 266 267 267 267 266 266 268 269 270
262 260 259 259 259 259 259 259 261 262 261 260 260 260 262 263 264 264 264 263 262 262 262 263 264 264 264 265 264 264 264 264 264 265 265 265 266 267 267 267 268 269 270
263 262 262 261 261 262 261 262 263 263 263 262 261 261 263 265 266 266 265 264 263 262 263 263 263 264 264 265 265 265 265 264 265 265 266 266 266 267 268 269 269 269 270
266 265 264 263 263 263 263 265 265 265 265 265 264 263 265 266 267 267 266 265 264 263 263 263 264 264 264 265 266 266 266 265 265 265 267 267 267 268 269 270 270 269 270
267 268 267 265 265 264 265 266 266 265 265 265 266 265 265 266 267 267 266 266 264 263 263 263 263 263 263 264 265 266 266 265 265 265 266 266 267 268 270 271 271 272 271
269 268 268 268 267 266 266 267 266 267 268 267 265 264 264 265 265 265 265 266 265 263 263 262 262 262 263 263 264 264 264 265 265 264 265 267 269 269 270 272 273 274 273
274 270 270 270 271 271 270 269 269 269 269 268 266 264 265 265 264 264 265 264 264 264 262 261 261 262 263 263 263 262 263 264 265 266 267 269 271 271 272 273 274 274 275
276 275 272 272 272 272 271 271 271 271 271 269 267 265 266 267 266 264 263 264 263 262 261 260 259 260 261 262 263 263 263 264 265 267 268 270 272 274 275 275 276 276 277
277 277 276 275 274 274 273 272 273 272 271 269 268 267 266 266 265 264 263 264 263 262 261 260 259 260 261 262 262 263 264 265 265 267 268 270 272 274 275 277 278 278 278
280 279 277 275 276 276 274 273 275 274 272 269 268 268 267 266 265 265 264 263 262 261 261 260 260 261 262 262 262 263 264 265 265 266 268 270 272 273 275 277 279 279 279
283 281 279 278 278 277 275 275 276 275 272 269 270 270 269 267 266 264 263 263 262 262 261 260 260 260 262 262 262 264 263 264 266 267 268 270 271 273 275 277 278 280 279
284 282 280 279 279 278 277 277 277 276 275 272 270 270 270 267 265 264 262 262 262 262 262 260 260 261 262 262 263 263 263 264 266 268 269 270 271 274 277 277 278 279 278
285 283 282 282 281 279 279 280 279 278 277 276 273 271 271 269 266 264 262 261 261 262 262 261 261 262 262 261 262 263 263 265 267 269 270 271 272 274 276 278 277 278 276
286 284 283 282 282 281 280 280 280 279 277 276 275 273 271 269 266 264 263 261 261 262 262 262 261 262 262 262 263 263 262 264 267 269 271 271 272 274 275 277 277 276 274
286 285 283 283 283 283 282 281 281 280 280 279 276 273 272 271 268 264 262 263 263 262 262 262 262 263 263 263 264 263 264 266 267 270 271 272 273 275 275 276 275 273 272
285 285 286 285 285 286 283 282 282 282 282 280 278 275 272 271 269 265 264 263 264 263 263 262 262 262 265 265 265 264 265 267 268 270 271 271 273 274 275 274 272 270 271
284 285 286 286 286 285 284 283 282 282 281 279 277 276 273 270 269 267 266 265 266 266 265 264 263 265 267 267 267 266 266 267 269 271 271 272 273 274 274 271 269 270 271
285 285 285 286 286 285 284 285 284 283 281 280 278 275 272 271 270 269 269 268 268 267 267 267 267 268 268 267 268 268 267 267 268 269 271 272 272 273 272 270 269 270 269
287 287 286 285 285 285 285 285 285 283 282 281 279 276 273 274 272 271 271 271 270 269 269 269 270 269 269 269 269 269 269 268 268 270 271 271 271 270 269 269 269 269 270
286 287 287 286 285 286 284 283 284 283 281 280 277 275 273 274 274 274 272 271 271 270 270 271 272 272 271 270 269 268 268 269 271 271 271 272 273 271 269 269 269 270 271
286 286 287 287 287 286 284 284 284 281 279 278 275 272 271 272 272 273 273 273 273 272 271 272 271 272 272 271 270 269 269 270 272 274 272 272 272 270 270 271 270 269 269
287 287 287 287 287 286 284 284 284 282 279 276 274 271 270 271 271 272 273 275 276 275 275 275 274 274 274 275 272 270 271 269 270 272 271 271 270 269 269 271 271 268 268
Height
5691 5692 5694 5695 5696 5698 5699 5700 5701 5703 5704 5705 5706 5707 5708 5708 5709 5709 5709 5710 5710 5711 5712 5713 5714 5715 5716 5717 5717 5718 5718 5718 5718 5719 5719 5719 5720 5720 5720 5720 5719 5719 5719
5681 5683 5684 5685 5686 5687 5688 5690 5691 5692 5693 5694 5695 5696 5696 5697 5697 5698 5698 5698 5699 5699 5701 5702 5703 5703 5704 5705 5705 5706 5706 5706 5706 5707 5707 5708 5709 5709 5709 5708 5707 5707 5707
5671 5673 5674 5675 5676 5677 5678 5679 5680 5681 5682 5683 5683 5684 5685 5685 5686 5686 5686 5687 5687 5688 5689 5690 5691 5691 5692 5693 5693 5694 5694 5694 5694 5694 5695 5695 5697 5697 5698 5697 5696 5695 5695
5661 5662 5664 5664 5665 5666 5667 5668 5669 5670 5671 5672 5672 5673 5673 5674 5674 5675 5675 5675 5676 5676 5677 5678 5678 5679 5680 5681 5681 5681 5681 5681 5682 5682 5682 5683 5683 5684 5686 5686 5684 5683 5682
5651 5652 5653 5654 5655 5656 5657 5658 5658 5659 5660 5660 5661 5661 5662 5662 5662 5663 5663 5663 5664 5664 5665 5665 5666 5667 5667 5668 5668 5668 5668 5669 5669 5669 5669 5670 5670 5670 5672 5673 5672 5671 5669
5641 5641 5642 5643 5644 5645 5646 5647 5647 5648 5648 5649 5649 5649 5650 5650 5650 5650 5650 5651 5651 5652 5652 5653 5654 5654 5655 5655 5655 5655 5656 5656 5656 5656 5656 5657 5657 5657 5657 5658 5659 5659 5658
5631 5631 5632 5633 5634 5634 5635 5635 5636 5636 5636 5636 5637 5637 5638 5638 5638 5638 5638 5638 5638 5639 5640 5640 5641 5641 5642 5642 5642 5642 5643 5643 5643 5644 5644 5644 5644 5644 5644 5644 5644 5645 5644
5622 5622 5622 5622 5623 5623 5624 5624 5624 5624 5624 5624 5624 5625 5625 5625 5625 5625 5625 5625 5625 5626 5626 5627 5628 5629 5629 5630 5630 5630 5630 5631 5631 5631 5631 5632 5632 5631 5631 5630 5630 5631 5631
5613 5613 5612 5612 5612 5613 5613 5613 5613 5612 5612 5612 5612 5613 5613 5613 5613 5613 5612 5612 5612 5613 5614 5614 5615 5616 5617 5618 5618 5618 5619 5619 5619 5620 5620 5620 5620 5619 5618 5618 5617 5617 5617
5604 5604 5603 5603 5603 5602 5602 5602 5601 5601 5600 5600 5600 5600 5600 5601 5601 5601 5601 5600 5600 5600 5601 5602 5603 5604 5605 5606 5606 5607 5607 5608 5608 5608 5608 5609 5608 5608 5607 5606 5605 5603 5603
5596 5595 5594 5594 5593 5593 5592 5591 5590 5589 5589 5588 5588 5588 5588 5588 5588 5589 5589 5589 5589 5589 5590 5591 5592 5593 5594 5594 5595 5596 5596 5597 5597 5598 5598 5598 5597 5596 5595 5594 5593 5591 5590
5587 5586 5585 5584 5583 5583 5582 5581 5580 5579 5578 5578 5577 5577 5577 5577 5577 5577 5577 5577 5578 5578 5579 5580 5581 5582 5583 5584 5584 5585 5586 5587 5587 5587 5587 5587 5586 5586 5584 5583 5582 5580 5578
5579 5577 5576 5575 5574 5573 5572 5571 5570 5569 5568 5567 5567 5567 5567 5566 5566 5567 5567 5567 5567 5568 5568 5569 5570 5572 5573 5574 5574 5575 5576 5576 5577 5577 5576 5576 5576 5575 5574 5572 5571 5569 5567
5571 5569 5568 5567 5566 5564 5563 5562 5561 5560 5559 5558 5558 5557 5557 5557 5556 5556 5557 5557 5557 5558 5558 5559 5560 5561 5563 5564 5564 5565 5566 5566 5566 5566 5566 5566 5566 5565 5563 5562 5560 5558 5556
5563 5561 5559 5558 5557 5556 5554 5553 5552 5551 5550 5549 5549 5548 5547 5547 5547 5547 5547 5547 5547 5548 5548 5549 5551 5552 5553 5554 5554 5555 5556 5556 5556 5556 5556 5556 5555 5554 5553 5552 5550 5548 5546
5555 5553 5551 5550 5548 5547 5546 5545 5544 5542 5541 5540 5540 5539 5538 5537 5537 5537 5537 5537 5538 5538 5539 5540 5541 5542 5543 5544 5544 5545 5546 5546 5547 5546 5546 5546 5545 5544 5542 5541 5539 5537 5536
5547 5545 5544 5542 5541 5539 5538 5537 5535 5534 5533 5531 5530 5529 5528 5528 5527 5527 5527 5528 5529 5529 5530 5531 5531 5532 5533 5534 5534 5535 5536 5537 5537 5537 5536 5535 5535 5534 5532 5530 5529 5527 5525
5540 5538 5536 5534 5533 5531 5530 5528 5527 5525 5524 5523 5522 5520 5519 5519 5518 5518 5518 5519 5520 5520 5521 5521 5522 5523 5524 5524 5525 5525 5526 5527 5527 5527 5526 5525 5525 5524 5522 5521 5519 5517 5516
5532 5530 5528 5527 5525 5523 5522 5520 5519 5517 5516 5514 5513 5512 5511 5510 5510 5509 5510 5510 5511 5511 5512 5512 5513 5514 5514 5514 5515 5515 5516 5517 5517 5517 5516 5515 5515 5514 5512 5511 5510 5509 5507
5525 5523 5521 5519 5517 5516 5514 5512 5511 5509 5508 5506 5505 5504 5503 5502 5501 5501 5501 5501 5502 5503 5503 5504 5504 5504 5505 5505 5505 5505 5506 5507 5507 5506 5506 5505 5504 5503 5502 5501 5500 5500 5499
5517 5515 5513 5512 5510 5508 5506 5505 5503 5502 5500 5498 5497 5496 5495 5494 5494 5493 5493 5494 5494 5495 5495 5495 5495 5495 5496 5496 5496 5496 5496 5496 5496 5496 5496 5495 5494 5493 5492 5491 5491 5491 5490
5509 5507 5506 5504 5502 5500 5498 5497 5495 5494 5492 5490 5489 5488 5488 5487 5487 5486 5486 5486 5487 5487 5487 5487 5487 5487 5487 5487 5487 5486 5486 5486 5486 5486 5486 5485 5484 5484 5483 5483 5482 5482 5482
5502 5500 5498 5496 5495 5493 5491 5489 5487 5486 5484 5483 5482 5482 5481 5481 5480 5480 5480 5480 5480 5480 5480 5480 5480 5480 5480 5479 5479 5478 5478 5477 5477 5477 5477 5476 5476 5475 5475 5475 5474 5474 5474
5494 5492 5491 5489 5488 5485 5484 5482 5480 5479 5478 5477 5476 5476 5475 5475 5474 5474 5474 5474 5474 5473 5473 5473 5473 5473 5472 5472 5471 5471 5470 5470 5469 5469 5469 5468 5468 5467 5467 5467 5467 5467 5466
5487 5485 5484 5482 5481 5479 5477 5475 5474 5473 5472 5471 5470 5470 5469 5469 5468 5468 5468 5468 5467 5467 5467 5466 5466 5466 5465 5465 5464 5463 5463 5463 5462 5462 5462 5461 5461 5461 5461 5460 5460 5460 5460
5480 5479 5477 5475 5474 5472 5471 5469 5468 5467 5466 5465 5465 5464 5464 5463 5463 5463 5462 5462 5462 5461 5460 5459 5459 5459 5459 5458 5457 5457 5456 5456 5456 5456 5455 5455 5455 5455 5454 5454 5454 5454 5454